Location: الشقيري
(17.1356°N, 42.8272°E)
Time: 11:40:45
(UTC+00:00)

N. Korean satellite - Pass Details

Date: 24 November 2019
Orbit: 455 x 506 km, 97.2° (Epoch: 12 December)

Event Time Altitude Azimuth Distance (km) Brightness Sun altitude
Rises 02:32:33 0° 17° (NNE) 2,560 10.2 -11.0°
Reaches altitude 10° 02:34:41 10° 23° (NNE) 1,669 9.3 -10.5°
Maximum altitude 02:38:11 52° 100° (E) 603 7.5 -9.8°
Drops below altitude 10° 02:41:37 10° 177° (S) 1,637 9.5 -9.0°
Sets 02:43:41 0° 182° (S) 2,503 10.4 -8.5°
